Vorticity
11 10 7 8 4 3 6 12 -22 10 1 7 -1 4 -3 -1 4 9 7 8 4 -1 0 -1 9 11 8 9 10 12 13 14 14 10 8 8 8 6 2 1 2 4 4 4 5 4 7 6 7
8 12 8 5 -4 4 11 -8 2 0 63 18 -1 9 -2 -1 4 8 18 -2 -2 -3 0 -0 9 9 7 10 13 17 15 13 10 9 8 8 7 1 2 3 3 4 1 4 4 5 7 5 6
7 5 12 3 18 0 -7 11 3 -4 -5 7 5 12 -8 -4 7 4 -5 -2 -2 -3 -2 4 8 8 8 11 14 16 13 11 8 7 7 8 7 3 -1 3 1 4 1 1 6 5 7 2 5
8 10 11 0 -14 1 7 10 -16 7 4 10 0 14 21 3 10 17 2 0 7 11 5 3 10 7 7 11 13 14 13 12 10 7 7 5 3 3 3 5 4 2 4 7 4 6 5 -6 13
5 2 7 5 1 -1 0 -6 1 13 10 11 2 3 10 7 -11 -14 -4 4 9 10 4 3 9 8 7 10 12 12 12 11 10 7 8 5 5 3 4 -0 5 3 4 6 1 6 -0 0 13
9 6 -6 13 2 4 10 23 -7 -23 12 8 1 8 21 7 4 5 13 -4 9 5 5 5 8 8 6 8 10 9 9 10 10 10 9 7 7 6 6 6 2 2 6 2 7 5 10 -4 19
1 6 -4 4 -5 -0 3 -14 24 38 14 -4 8 14 -4 11 9 11 5 7 6 4 5 5 8 7 6 5 6 7 7 6 6 5 6 6 5 6 6 5 5 6 7 2 6 2 6 1 10
9 11 7 -3 1 1 18 -10 -12 16 3 5 -6 9 10 7 0 8 2 7 12 5 5 5 7 6 4 3 5 5 7 5 4 3 5 6 9 10 9 8 6 7 9 -0 7 3 1 6 8
15 -1 6 4 -1 5 2 1 -13 12 10 3 4 -3 10 27 11 7 6 0 17 2 2 2 5 6 2 2 3 2 4 8 6 4 3 4 4 7 8 8 6 8 7 5 4 4 5 4 7
8 -4 16 -1 4 1 7 -1 -17 -6 15 7 23 -5 7 -2 10 1 -2 2 3 9 1 8 3 6 3 2 2 2 2 4 7 6 4 4 4 4 4 5 7 7 6 6 5 6 6 6 7
8 -6 2 0 12 17 2 2 2 -16 18 3 15 1 16 2 -11 -1 6 7 5 6 5 8 5 5 1 3 2 3 3 2 4 7 6 7 7 7 8 9 9 7 7 7 10 8 8 4 5
7 12 10 4 0 1 7 1 9 -7 2 32 20 -8 16 9 1 -5 -20 4 5 -5 16 14 4 3 4 -1 6 1 4 3 2 4 7 5 6 8 8 7 7 10 8 5 6 7 5 10 8
7 3 11 8 7 22 -3 2 7 16 -4 9 -4 -13 27 6 12 14 12 24 11 13 14 14 9 7 7 -2 5 3 4 2 4 2 5 4 3 3 6 6 4 10 11 9 7 7 9 9 8
18 16 5 2 15 -2 -2 11 2 6 -2 6 1 -2 3 15 24 10 6 10 3 3 2 3 3 5 8 8 3 3 2 10 2 6 4 3 1 0 1 6 5 5 12 9 8 11 7 10 9
11 4 16 6 7 9 -1 13 32 -7 -2 -2 7 8 -3 -11 -1 12 6 3 13 -3 5 6 12 10 7 3 10 7 3 3 8 7 7 5 2 1 2 2 6 4 10 10 10 12 7 7 10
-15 -4 18 9 5 11 -0 14 2 8 11 -0 12 6 -0 -4 -7 -11 2 -1 20 4 -4 -3 -2 5 -1 2 0 5 4 3 2 8 5 8 6 2 2 3 3 5 3 12 13 8 4 6 6
33 1 3 15 11 29 1 17 30 1 14 3 21 12 17 11 -6 1 -17 -15 19 11 7 -2 -7 -5 -5 -3 2 4 7 3 1 3 6 7 9 6 2 4 3 4 2 8 12 10 10 9 9
6 32 -5 10 25 2 32 6 -3 -2 14 7 7 2 -1 -4 12 44 35 35 7 14 4 5 9 7 5 7 7 5 10 4 3 1 5 9 12 8 6 4 2 3 3 3 13 9 10 8 8
2 -0 8 25 -15 13 23 20 -9 2 6 -8 29 2 20 25 24 1 26 4 -1 0 5 8 -4 -0 7 6 2 2 10 11 2 2 4 8 7 8 9 5 3 1 2 2 6 10 10 10 13
-1 10 25 19 6 25 -2 53 36 10 19 -0 19 12 15 -3 14 29 15 8 0 10 9 12 9 8 4 4 3 -2 7 10 10 5 4 7 9 9 11 7 4 1 1 2 3 9 8 9 16
26 3 10 -5 5 17 24 9 12 10 12 37 16 18 -12 36 9 2 11 13 16 7 -0 5 4 2 2 -0 2 -3 3 9 5 6 7 7 8 7 19 8 5 1 2 2 1 7 9 7 12
28 13 4 13 -9 2 -8 27 43 25 -16 -8 29 16 9 -3 0 11 -2 7 6 11 12 12 4 -3 -3 1 8 0 3 8 8 10 10 8 9 6 18 10 5 2 3 1 1 4 9 9 16
4 14 -3 7 19 15 11 -8 30 32 15 5 7 3 -2 -3 30 19 -3 25 9 23 15 8 6 9 8 5 -8 9 17 8 5 7 9 7 8 8 12 12 5 3 4 1 0 4 8 11 14
24 -5 -6 94 17 6 6 -32 32 19 13 1 1 7 -7 -7 18 9 -4 7 23 16 21 17 9 8 1 17 25 7 8 10 10 9 9 12 8 7 6 15 6 3 3 1 -0 4 7 14 18
20 17 -0 9 6 2 55 12 -47 34 36 11 23 1 16 -2 -33 26 33 15 5 6 3 20 13 8 21 12 14 11 5 4 7 8 13 13 10 7 7 18 10 4 7 1 -1 5 10 21 15
4 23 -8 8 8 21 23 6 8 37 40 -12 35 27 41 25 47 11 9 2 4 5 8 8 4 9 7 11 8 6 7 13 10 8 6 15 13 8 7 19 11 5 7 1 1 5 15 18 16
38 9 -25 8 12 7 -1 10 13 19 15 63 39 20 14 17 -3 1 -8 -7 -6 2 -1 -6 -3 2 6 8 9 7 6 6 8 10 9 11 18 9 5 16 10 6 4 1 2 7 18 16 30
4 6 -2 -0 13 3 -2 45 -28 37 11 18 16 12 10 5 1 -5 9 5 -12 -5 8 5 13 12 11 9 11 14 11 8 9 10 15 8 17 8 5 20 11 5 4 0 5 12 13 10 29
28 3 13 -21 3 3 12 4 17 1 44 -24 -10 16 8 15 15 10 2 8 8 3 9 5 12 21 15 7 17 14 16 13 11 13 15 9 14 14 8 20 9 5 2 2 8 13 13 9 15
5 20 -10 -22 6 16 10 19 42 17 28 31 5 -5 4 2 -3 8 4 6 6 -2 8 4 9 11 14 8 19 12 17 10 13 13 18 7 14 16 4 17 6 2 1 5 9 13 13 8 17
Height
3141 3142 3141 3142 3146 3140 3137 3132 3132 3132 3137 3135 3135 3136 3139 3140 3141 3142 3141 3145 3147 3150 3151 3153 3154 3153 3152 3151 3149 3148 3148 3149 3151 3153 3156 3158 3160 3161 3162 3164 3165 3166 3166 3167 3167 3167 3167 3167 3167
3139 3139 3139 3139 3139 3136 3133 3130 3133 3133 3133 3134 3135 3136 3138 3139 3139 3139 3142 3144 3146 3148 3150 3151 3152 3151 3149 3148 3147 3146 3146 3147 3149 3152 3154 3157 3158 3160 3162 3163 3164 3164 3165 3165 3166 3166 3167 3167 3167
3135 3136 3137 3136 3132 3131 3129 3130 3135 3136 3133 3132 3134 3135 3138 3137 3137 3139 3143 3143 3145 3147 3148 3150 3150 3149 3148 3147 3145 3144 3144 3146 3148 3150 3153 3155 3157 3158 3160 3161 3162 3163 3164 3164 3166 3166 3167 3167 3167
3130 3131 3132 3127 3125 3126 3126 3125 3131 3138 3131 3131 3132 3134 3137 3135 3133 3137 3142 3141 3143 3145 3147 3148 3148 3147 3146 3145 3144 3144 3144 3145 3147 3149 3152 3153 3155 3157 3158 3160 3161 3161 3162 3163 3164 3164 3166 3166 3165
3126 3126 3125 3120 3119 3122 3124 3123 3128 3133 3131 3129 3131 3133 3135 3134 3131 3132 3139 3140 3142 3143 3144 3146 3146 3145 3145 3145 3144 3143 3144 3145 3147 3148 3150 3152 3153 3155 3156 3158 3159 3159 3160 3162 3163 3163 3164 3164 3164
3122 3124 3119 3114 3114 3118 3121 3124 3126 3129 3130 3126 3128 3132 3132 3130 3129 3131 3135 3139 3140 3140 3141 3142 3143 3143 3144 3144 3144 3143 3144 3145 3147 3148 3149 3150 3152 3154 3155 3156 3156 3157 3159 3159 3161 3161 3161 3162 3162
3117 3118 3111 3112 3112 3113 3117 3120 3122 3121 3124 3123 3123 3128 3130 3128 3128 3129 3132 3135 3137 3138 3139 3140 3141 3142 3142 3143 3143 3143 3144 3145 3146 3148 3148 3149 3150 3152 3153 3154 3154 3155 3156 3157 3158 3158 3159 3160 3161
3112 3112 3103 3103 3108 3106 3112 3116 3122 3121 3120 3124 3122 3125 3126 3125 3125 3126 3128 3131 3134 3135 3135 3137 3138 3139 3140 3141 3141 3142 3143 3144 3145 3146 3147 3147 3148 3149 3150 3152 3153 3153 3154 3154 3155 3156 3157 3158 3159
3109 3104 3086 3094 3102 3103 3108 3109 3115 3118 3118 3117 3120 3120 3119 3120 3122 3122 3123 3126 3130 3132 3133 3134 3136 3137 3138 3139 3140 3140 3141 3142 3143 3144 3145 3146 3147 3147 3148 3149 3150 3151 3151 3152 3152 3153 3154 3155 3157
3099 3089 3077 3092 3097 3099 3103 3104 3107 3113 3112 3112 3115 3114 3116 3117 3116 3117 3118 3122 3125 3129 3130 3131 3133 3135 3136 3137 3138 3139 3139 3140 3141 3142 3143 3144 3145 3145 3146 3146 3147 3147 3148 3149 3149 3150 3151 3152 3154
3089 3066 3086 3087 3093 3097 3097 3097 3100 3104 3106 3106 3109 3106 3109 3112 3114 3114 3113 3117 3123 3124 3126 3128 3130 3131 3132 3134 3136 3136 3137 3138 3139 3140 3140 3141 3142 3143 3143 3144 3144 3144 3144 3145 3146 3146 3148 3149 3151
3078 3070 3080 3081 3087 3089 3087 3092 3090 3095 3099 3103 3103 3102 3102 3105 3109 3112 3112 3110 3114 3119 3122 3124 3126 3128 3129 3131 3133 3134 3135 3136 3136 3137 3138 3138 3139 3139 3140 3141 3141 3141 3141 3142 3143 3143 3144 3145 3147
3066 3071 3074 3076 3080 3078 3082 3079 3082 3081 3090 3095 3096 3096 3097 3098 3102 3104 3107 3109 3109 3111 3115 3119 3122 3125 3126 3126 3130 3131 3132 3133 3133 3134 3135 3136 3136 3136 3136 3137 3138 3138 3137 3138 3138 3139 3140 3141 3143
3064 3063 3063 3069 3064 3066 3073 3071 3078 3070 3081 3084 3088 3090 3092 3092 3094 3097 3101 3103 3106 3107 3110 3114 3117 3120 3122 3123 3125 3127 3129 3130 3131 3131 3132 3132 3134 3134 3134 3134 3134 3134 3134 3133 3133 3135 3135 3136 3137
3056 3056 3054 3050 3044 3055 3070 3065 3056 3067 3073 3073 3078 3083 3085 3088 3089 3091 3094 3098 3101 3103 3104 3105 3110 3113 3116 3118 3119 3120 3124 3125 3126 3128 3128 3129 3129 3130 3130 3130 3130 3130 3130 3129 3129 3130 3131 3131 3133
3047 3048 3036 3015 3040 3049 3062 3048 3044 3061 3066 3065 3069 3074 3077 3080 3083 3085 3087 3090 3094 3098 3099 3099 3102 3106 3109 3112 3114 3114 3117 3119 3120 3122 3123 3125 3125 3126 3127 3127 3126 3125 3125 3125 3126 3126 3127 3127 3129
3030 3021 3010 3011 3033 3043 3048 3038 3043 3053 3058 3058 3060 3065 3069 3073 3075 3078 3081 3084 3087 3091 3095 3095 3095 3099 3103 3105 3108 3109 3108 3113 3115 3116 3118 3119 3120 3121 3122 3124 3123 3122 3121 3121 3121 3121 3121 3122 3123
3006 3016 3021 3020 3023 3035 3036 3031 3038 3044 3049 3050 3053 3056 3059 3062 3066 3070 3073 3077 3081 3085 3088 3089 3089 3093 3096 3098 3100 3103 3104 3102 3107 3111 3113 3114 3114 3115 3115 3117 3118 3118 3118 3117 3118 3117 3116 3116 3118
3014 3016 3015 3016 3020 3026 3022 3024 3030 3037 3043 3043 3044 3049 3051 3055 3058 3062 3065 3070 3076 3079 3083 3083 3083 3085 3088 3090 3091 3092 3098 3100 3099 3100 3107 3109 3109 3110 3110 3111 3113 3114 3114 3113 3113 3112 3111 3112 3112
3006 3007 3008 3012 3018 3018 3017 3018 3022 3028 3032 3034 3038 3042 3045 3049 3052 3055 3059 3063 3069 3072 3075 3076 3077 3079 3081 3084 3086 3085 3089 3093 3094 3095 3095 3100 3102 3103 3104 3105 3106 3107 3109 3108 3108 3107 3106 3105 3106
2994 2999 3004 3006 3010 3008 3010 3009 3012 3016 3023 3026 3030 3036 3040 3043 3049 3051 3055 3055 3060 3065 3069 3072 3072 3071 3074 3076 3079 3080 3081 3082 3086 3088 3089 3091 3093 3095 3096 3099 3100 3100 3103 3102 3102 3102 3100 3098 3099
2984 2993 2999 3001 3007 3005 3008 3006 3005 3010 3014 3017 3021 3029 3034 3040 3044 3048 3049 3050 3053 3058 3063 3066 3068 3069 3069 3068 3070 3071 3073 3077 3079 3081 3082 3082 3085 3087 3089 3091 3094 3094 3096 3096 3096 3097 3094 3092 3092
2977 2987 2992 2995 2998 3000 3004 3010 2997 3002 3005 3008 3013 3019 3026 3032 3038 3040 3042 3043 3047 3050 3052 3056 3059 3062 3064 3065 3064 3063 3063 3067 3069 3071 3073 3074 3074 3079 3081 3084 3087 3088 3089 3090 3090 3090 3088 3087 3085
2972 2983 2994 2990 2990 2997 2998 3002 2991 2995 2998 3004 3009 3014 3021 3026 3032 3034 3036 3036 3036 3036 3037 3038 3042 3048 3054 3056 3055 3054 3055 3057 3059 3061 3064 3066 3066 3069 3072 3075 3079 3082 3083 3083 3083 3082 3081 3079 3077
2971 2983 2989 2990 2993 2995 2990 2998 2985 2989 2994 3002 3007 3013 3016 3020 3027 3027 3030 3032 3030 3031 3033 3035 3037 3046 3049 3048 3049 3048 3047 3048 3048 3051 3053 3056 3058 3059 3063 3065 3070 3074 3076 3076 3076 3075 3073 3071 3070
2968 2977 2981 2986 2989 2989 2991 2987 2978 2985 2989 2995 2997 3006 3012 3014 3017 3022 3025 3026 3026 3029 3031 3032 3036 3040 3040 3040 3040 3040 3038 3040 3039 3040 3043 3045 3048 3051 3054 3057 3061 3066 3068 3069 3069 3068 3066 3065 3064
2966 2974 2979 2977 2980 2982 2982 2982 2982 2981 2988 2992 2992 3002 3009 3008 3012 3016 3019 3019 3020 3025 3028 3030 3030 3032 3032 3030 3030 3029 3027 3029 3031 3032 3033 3034 3039 3042 3046 3048 3053 3057 3059 3061 3061 3061 3059 3059 3058
2967 2974 2977 2978 2983 2982 2979 2978 2981 2983 2987 2990 2991 2997 3001 3002 3003 3006 3009 3013 3020 3025 3025 3025 3025 3024 3022 3020 3019 3018 3018 3018 3022 3023 3023 3025 3030 3033 3037 3041 3045 3049 3052 3053 3053 3053 3053 3053 3054
2973 2975 2977 2982 2984 2981 2982 2982 2983 2985 2987 2988 2988 2990 2998 3001 3002 3004 3012 3017 3019 3021 3020 3018 3015 3013 3011 3009 3008 3006 3008 3008 3011 3013 3014 3017 3021 3025 3029 3034 3037 3041 3044 3046 3046 3046 3046 3047 3049
2973 2975 2978 2983 2984 2979 2980 2987 2982 2986 2986 2986 2990 2993 2998 3003 3005 3009 3012 3013 3014 3014 3013 3010 3006 3003 3001 2999 2997 2996 2997 2998 3000 3001 3004 3007 3011 3016 3022 3026 3030 3034 3036 3037 3038 3038 3039 3040 3042